Location: Unspecified
(49.2170°N, 0.0000°E)
Time: 15:24:31
(UTC+00:00)

A-11 Canister half - All Passes

Search period start: 23 January 2021 00:00
Search period end: 02 February 2021 00:00
Orbit: 1524 x 1684 km, 47.3° (Epoch: 22 January)

Date Brightness Start Highest point End Pass type
(mag) Time Alt. Az. Time Alt. Az. Time Alt. Az.
23 Jan - 12:49:32 10° SSE 12:55:12 18° SE 13:00:55 10° E daylight
23 Jan - 14:49:30 10° SW 14:58:21 50° SSE 15:07:27 10° ENE daylight
23 Jan - 16:53:21 10° WSW 17:02:47 79° S 17:12:34 10° E daylight
23 Jan - 18:58:11 10° W 19:07:41 73° SSW 19:17:34 10° ESE visible
23 Jan - 21:03:11 10° WNW 21:11:56 40° SW 21:20:54 10° SSE visible
23 Jan - 23:11:44 10° WSW 23:14:51 12° WSW 23:17:59 10° SW visible
24 Jan - 12:28:20 10° SSE 12:33:40 17° SE 12:39:01 10° E daylight
24 Jan - 14:27:58 10° SW 14:36:45 48° SSE 14:45:45 10° ENE daylight
24 Jan - 16:31:44 10° WSW 16:41:08 78° S 16:50:53 10° E daylight
24 Jan - 18:36:32 10° W 18:46:03 74° SSW 18:55:53 10° ESE visible
24 Jan - 20:41:31 10° WNW 20:50:19 41° SW 20:59:22 10° SSE visible
24 Jan - 22:49:31 10° W 22:53:17 13° WSW 22:57:07 10° SSW visible
25 Jan - 12:07:10 10° SSE 12:12:07 16° SE 12:17:06 10° E daylight
25 Jan - 14:06:27 10° SW 14:15:09 46° SE 14:24:03 10° ENE daylight
25 Jan - 16:10:06 10° WSW 16:19:29 77° S 16:29:11 10° E daylight
25 Jan - 18:14:54 10° W 18:24:23 75° SSW 18:34:12 10° ESE visible
25 Jan - 20:19:51 10° WNW 20:28:42 43° SW 20:37:49 10° SSE visible
25 Jan - 22:27:25 10° W 22:31:44 14° SW 22:36:06 10° SSW visible
26 Jan - 11:46:04 10° SSE 11:50:35 15° SE 11:55:08 10° E daylight
26 Jan - 13:44:55 10° SSW 13:53:33 45° SE 14:02:22 10° ENE daylight
26 Jan - 15:48:29 10° WSW 15:57:50 76° SSE 16:07:30 10° E daylight
26 Jan - 17:53:16 10° W 18:02:44 76° SSW 18:12:32 10° ESE visible
26 Jan - 19:58:12 10° WNW 20:07:05 44° SW 20:16:15 10° SSE visible
26 Jan - 22:05:25 10° W 22:10:11 15° SW 22:15:01 10° SSW visible
27 Jan - 11:25:02 10° SSE 11:29:03 14° SE 11:33:05 10° E daylight
27 Jan - 13:23:25 10° SSW 13:31:57 43° SE 13:40:40 10° ENE daylight
27 Jan - 15:26:51 10° WSW 15:36:11 75° SSE 15:45:49 10° E daylight
27 Jan - 17:31:37 10° W 17:41:05 76° S 17:50:52 10° ESE visible
27 Jan - 19:36:32 10° WNW 19:45:28 46° SW 19:54:40 10° SE visible
27 Jan - 21:43:28 10° W 21:48:38 16° SW 21:53:52 10° SSW visible
28 Jan - 11:04:05 10° SE 11:07:32 13° ESE 11:10:58 10° E daylight
28 Jan - 13:01:54 10° SSW 13:10:22 41° SE 13:18:59 10° ENE daylight
28 Jan - 15:05:14 10° WSW 15:14:32 74° SSE 15:24:08 10° E daylight
28 Jan - 17:09:59 10° W 17:19:25 77° S 17:29:11 10° ESE visible
28 Jan - 19:14:53 10° WNW 19:23:51 47° SSW 19:33:06 10° SE visible
28 Jan - 21:21:33 10° W 21:27:04 17° SW 21:32:40 10° SSW visible
29 Jan - 10:43:18 10° SE 10:46:00 11° ESE 10:48:42 10° ESE daylight
29 Jan - 12:40:24 10° SSW 12:48:47 40° SE 12:57:18 10° ENE daylight
29 Jan - 14:43:38 10° WSW 14:52:54 73° SSE 15:02:27 10° E daylight
29 Jan - 16:48:21 10° W 16:57:46 78° S 17:07:30 10° ESE daylight
29 Jan - 18:53:14 10° WNW 19:02:14 49° SSW 19:11:31 10° SE visible
29 Jan - 20:59:41 10° W 21:05:30 18° SW 21:11:26 10° SSW visible
30 Jan - 10:22:55 10° SE 10:24:29 10° ESE 10:26:02 10° ESE daylight
30 Jan - 12:18:54 10° SSW 12:27:12 38° SE 12:35:36 10° ENE daylight
30 Jan - 14:22:00 10° WSW 14:31:16 72° SSE 14:40:47 10° E daylight
30 Jan - 16:26:42 10° W 16:36:06 78° S 16:45:50 10° ESE daylight
30 Jan - 18:31:35 10° WNW 18:40:36 50° SSW 18:49:55 10° SE visible
30 Jan - 20:37:51 10° W 20:43:56 19° SW 20:50:09 10° SSW visible
31 Jan - 11:57:26 10° SSW 12:05:36 37° SE 12:13:54 10° ENE daylight
31 Jan - 14:00:24 10° WSW 14:09:38 71° SSE 14:19:06 10° E daylight
31 Jan - 16:05:04 10° W 16:14:28 79° S 16:24:09 10° ESE daylight
31 Jan - 18:09:56 10° WNW 18:18:59 52° SSW 18:28:19 10° SE visible
31 Jan - 20:16:02 10° W 20:22:22 20° SW 20:28:51 10° S visible
01 Feb - 11:35:57 10° SSW 11:44:02 35° SE 11:52:13 10° ENE daylight
01 Feb - 13:38:48 10° WSW 13:48:00 70° SSE 13:57:26 10° E daylight
01 Feb - 15:43:26 10° W 15:52:49 80° S 16:02:28 10° ESE daylight
01 Feb - 17:48:18 10° WNW 17:57:22 53° SSW 18:06:44 10° SE visible
01 Feb - 19:54:15 10° W 20:00:48 21° SW 20:07:31 10° S visible
